www.pogodaiklimat.ru

Погода и климат >> Архив погоды >> Россия >> Коми >> Усинск


ПОГОДА в Усинске

  • Прогноз погоды в Усинске
  • Монитор погоды в Усинске

АРХИВ ПОГОДЫ в Усинске

Время (UTC), дата Ветер
(напр.,м/с)
 
Видим.   Явления Облачность Т
(С)
Тd
(С)
f
(%)
Тe
(С)
Тes
(С)
Комфортность P
(гПа)
Po
(гПа)
Тmin
(С)
Tmax
(С)
R
(мм)
R24
(мм)
S
(см)
06 19.08 В 2 н/о н/о +16.7 +9.9 64 +17 +17 1028.4 1019.1 +5.3
09 19.08 ЮВ 1 н/о н/о +18.9 +9.5 54 +21 +21 комфорт 1027.3 1018.2
12 19.08 В 3 н/о н/о +20.0 +9.8 52 +22 +22 комфорт 1026.0 1016.9
15 19.08 СВ 3 н/о н/о +18.7 +11.0 61 +19 +19 1025.4 1016.2
18 19.08 СВ 2 н/о н/о +12.8 +10.2 84 +12 +12 1025.2 1015.9 +20.2
21 19.08 СВ 3 н/о н/о +11.3 +8.5 83 +9 +9 1024.4 1015.0
00 20.08 В 3 н/о н/о +11.1 +8.8 86 +9 +9 1024.2 1014.8
03 20.08 ЮВ 2 н/о н/о +14.3 +9.9 75 +14 +14 1024.2 1014.9 +9.8
06 20.08 ЮВ 2 н/о н/о +20.2 +10.6 54 +22 +22 комфорт 1023.4 1014.3 +9.8
09 20.08 В 2 н/о н/о +22.1 +9.8 46 +24 +24 комфорт 1022.3 1013.3
12 20.08 ЮВ 2 н/о н/о +22.9 +9.1 41 +24 +24 комфорт 1021.5 1012.5
15 20.08 Ю 2 н/о н/о +20.1 +9.9 52 +22 +22 комфорт 1021.4 1012.3
18 20.08 ЮВ 2 н/о н/о +14.1 +10.3 78 +14 +14 1022.0 1012.7 +22.9
21 20.08 ЮВ 3 н/о н/о +15.1 +8.8 66 +14 +14 1022.1 1012.9
00 21.08 В 3 н/о н/о +11.8 +7.0 72 +10 +10 1021.9 1012.5
03 21.08 ЮВ 4 н/о н/о +13.3 +9.0 75 +12 +12 1021.5 1012.2 +11.6
06 21.08 ЮВ 4 н/о н/о +13.1 +11.0 87 +11 +11 1021.1 1011.8 +11.6
09 21.08 ЮВ 3 н/о н/о +14.4 +12.3 87 +13 +13 1019.8 1010.5
12 21.08 ЮВ 4 н/о н/о +17.8 +12.6 72 +18 +18 1018.1 1009.0
15 21.08 Ю 4 н/о н/о +15.8 +13.6 87 +15 +15 1017.0 1007.8
18 21.08 Ю 2 н/о н/о +15.3 +14.4 94 +15 +15 1015.8 1006.6 +18.2
21 21.08 ЮЗ 3 н/о н/о +14.9 +14.0 94 +14 +14 1015.1 1005.9
00 22.08 З 3 н/о н/о +14.2 +13.3 94 +13 +13 1015.7 1006.5
03 22.08 З 4 н/о н/о +13.6 +12.5 93 +12 +12 1016.6 1007.3 +13.1
06 22.08 З 3 н/о н/о +15.2 +13.0 87 +14 +14 1016.9 1007.7 +13.1
09 22.08 ЮЗ 3 н/о н/о +17.2 +12.5 74 +17 +17 1016.8 1007.7
12 22.08 ЮЗ 3 н/о н/о +19.0 +11.6 62 +20 +20 1015.9 1006.8
15 22.08 ЮВ 2 н/о н/о +16.7 +12.8 78 +17 +17 1014.9 1005.7
18 22.08 ЮВ 2 н/о н/о +14.3 +12.2 87 +14 +14 1013.7 1004.5 +19.9
21 22.08 В 1 н/о н/о +12.2 +11.1 93 +12 +12 1012.3 1003.0
00 23.08 В 2 н/о н/о +12.3 +11.3 94 +11 +11 1010.1 1000.9
03 23.08 СВ 2 н/о н/о +12.5 +11.1 91 +12 +12 1007.9 998.7 +12.1
06 23.08 СВ 2 н/о н/о +13.7 +11.6 87 +13 +13 1005.9 996.8 +12.1
09 23.08 С 2 н/о н/о +15.0 +12.4 84 +15 +15 1004.6 995.5
12 23.08 С 4 н/о н/о +13.4 +10.8 84 +12 +12 1004.7 995.6
15 23.08 СЗ 3 н/о н/о +12.9 +11.4 91 +11 +11 1006.1 996.9
18 23.08 СЗ 3 н/о н/о +12.5 +11.1 91 +11 +11 1007.7 998.5 +15.5
21 23.08 СЗ 4 н/о н/о +12.3 +11.0 92 +10 +10 1009.2 999.9
00 24.08 СЗ 3 н/о н/о +10.5 +9.3 92 +8 +8 1011.0 1001.7
03 24.08 СЗ 4 н/о н/о +10.0 +8.8 92 +7 +7 1012.6 1003.3 +9.7
06 24.08 З 4 н/о н/о +9.4 +7.9 90 +6 +6 1013.9 1004.5 +9.5
12 24.08 З 3 н/о н/о +10.2 +5.3 72 +8 +8 1015.3 1005.9
21 24.08 СЗ 1 н/о н/о +8.5 +5.5 81 +8 +8 1014.8 1005.4
00 25.08 СЗ 2 н/о н/о +7.5 +4.6 82 +5 +5 1015.2 1005.7
03 25.08 СЗ 2 н/о н/о +7.8 +5.1 83 +6 +6 1015.4 1006.0 +7.2
06 25.08 С 3 н/о н/о +9.7 +4.1 68 +8 +8 1016.0 1006.7 +7.2
09 25.08 СЗ 4 н/о н/о +9.3 +4.0 69 +7 +7 1016.7 1007.2
15 25.08 СЗ 2 н/о н/о +7.3 +5.2 87 +5 +5 1018.3 1008.8

 

Местоположение метеостанции Усинск (Коми, Россия): широта 66.03 долгота 57.37 высота над уровнем моря 79 м.

В архиве по умолчанию представлена погода в Усинске за последнюю неделю. Архивные данные за месяц целиком и за предыдущие месяцы, начиная с января 2011 года, Вы можете получить, выбрав интересующий диапазон дат из раскрывающегося списка и нажав кнопку "Ввод!".


*Определитесь, кто Вы:
робот инопланетянин человек

Внимание! Время в таблицах - всемирное. Для получения местного времени необходимо прибавить поправку, которая равна 3 ч.

Смотрите также архив погоды в соседних городах и на ближайших метеорологических станциях:

Погода в Усть-Усе (Коми, Россия) (21 км)
Погода в Мутном Материке (Коми, Россия) (100 км)
Погода в Печоре (Коми, Россия) (102 км)
Погода в Харуте (Ненецкий АО, Россия) (132 км)
Погода в Хорей-Вере (Ненецкий АО, Россия) (158 км)
Погода в Петруни (Коми, Россия) (159 км)
Погода в Ираеле (Коми, Россия) (191 км)
Погода в Ижме (Коми, Россия) (196 км)
Погода в Усть-Щугоре (Коми, Россия) (196 км)
Погода в Окуневом Носу (Коми, Россия) (217 км)

Пояснения к столбцам:

Ветер - указаны скорость ветра в м/с - средняя за 10 мин, порывы в срок и между сроками (в фигурных скобках) и направление, откуда дует ветер: С - северный, СВ - северо-восточный, В - восточный, ЮВ - юго-восточный, Ю - южный, ЮЗ - юго-западный, З - западный, СЗ - северо-западный.
Видимость - горизонтальная дальность видимости в метрах или километрах. При видимости от 1 до 10 км при отсутствии осадков обычно наблюдается дымка, при ухудшении видимости до 1 км и менее - туман. В сухую погоду видимость может ухудшаться дымом, пылью или мглою.
Явления - указаны атмосферные явления, наблюдавшиеся в срок или в последний час перед сроком; фигурными скобками обозначены явления, наблюдавшиеся между сроками (за 1-3 часа до срока); квадратными скобками обозначены град или гололедные отложения с указанием их диаметра в мм.
Облачность - указаны через наклонную черту общая и нижняя облачность в баллах и высота нижней границы облаков в метрах; квадратными скобками обозначены формы облаков: Ci - перистые, Cs - перисто-слоистые, Cc - перисто-кучевые, Ac - высококучевые, As - высокослоистые, Sc - слоисто-кучевые, Ns - слоисто-дождевые, Cu - кучевые, Cb - кучево-дождевые. Подробнее классификацию облаков см. в Атласе облаков (PDF).
T - Температура воздуха - температура, измеренная на высоте 2 м над землей.
Td - Температура точки росы - температура, при понижении до которой содержащийся в воздухе водяной пар достигнет насыщения.
f - Относительная влажность воздуха - влажноcть воздуха, измеренная на высоте 2 м над землей.
Te - Эффективная температура - температура, которую ощущает одетый по сезону человек в тени. Характеристика душности погоды. При расчете учитывается влияние влажности воздуха и скорости ветра на теплоощущения человека.
Tes - Эффективная температура на солнце - температура, которую ощущает человек, с поправкой на солнечный нагрев. Характеристика знойности погоды. Зависит от высоты солнца над горизонтом, облачности и скорости ветра. Ночью, в пасмурную погоду, а также при ветре 12 м/с и более поправка равна нулю.
P - Атмосферное давление - приведенное к уровню моря атмосферное давление.
Po - Атмосферное давление - измеренное на уровне метеостанции атмосферное давление.
Tmin - Минимальная температура - минимум температуры воздуха на высоте 2 м над землей.
Tmax - Максимальная температура - максимум температуры воздуха на высоте 2 м над землей.
R - Количество осадков - Количество выпавших осадков за период времени, мм. При наведении курсора мыши на число - период времени, за который выпало указанное количество осадков.
R24 - Количество осадков - Количество выпавших осадков за 24 часа, мм.
S - Снежный покров - Высота снежного покрова, см. При наведении курсора мыши на число - состояние снежного покрова и степень покрытия местности в баллах.